Pagrindinis puslapis
METAR-TAF:

METAR-TAF

Oro uostai :

Odessa-Schlemeyer Field

Odessa, Teksasas, Jungtinės Amerikos Valstijos

platuma: 31-55-17N, ilguma: 102-23-30W, Aukštis: 914 m

Dabartinis oras

Ataskaita buvo paskelbta 29 minutes, ne 10:53 UTC
Vėjas 14 kt iš Pietų/Pietvakarių
Temperatūra 29°C
Drėgmė 22%
Slėgis 1014 hPa
Matomumas: 16.1 km
Giedras dangus

METAR: KODO 151053Z AUTO 20014KT 10SM CLR 29/05 A2995 RMK AO2 SLP080 T02890050

Laikas: 06:22 (11:22 UTC)


TAF: trūkstamas

Orai ataskaitas ir orų prognozės (METAR, TAF).

turimą stotys yra geltonos ir raudonos taškus žemėlapyje.

Perkelti pele per norėdami pamatyti stoties vardą.

Tada spustelėkite, norėdami matyti oro stebėjimo ir prognozės.

Norėdami pakeisti žemėlapį: spustelėkite ant žalios mygtukų su juodo kryžiaus žemyn,; žalią mygtuką su brūkšneliu, jei norite nutolinti; arba žalių rodyklių gretimoms žemėlapius.


METAR-TAF: